Regional Weather Roundup
Issued by NWS

Home | Current Version | Previous Version | Graphics & Text | Print | Product List | Glossary Off
Versions: 1 2 3 4 5 6 7 8 9 10 11 12 13 14 15 16 17 18 19 20 21 22 23 24 25 26 27 28 29 30 31 32 33 34 35 36 37 38 39 40 41 42 43 44 45 46 47 48 49 50

000
ASUS43 KDMX 262001
RWRIA

WEATHER ROUNDUP FOR IOWA
NATIONAL WEATHER SERVICE DES MOINES IA
300 PM CDT SUN MAR 26 2017

NOTE: "FAIR" INDICATES FEW OR NO CLOUDS BELOW 12,000 FEET WITH NO
SIGNIFICANT WEATHER AND/OR OBSTRUCTIONS TO VISIBILITY.

* - THESE STATIONS ARE NOT NWS STATIONS...THUS NOT UNDER NWS
QUALITY CONTROL.  THEY ALSO DO NOT REPORT WEATHER SUCH
AS PRECIPITATION OR FOG.

IAZ001>003-012>014-020>022-031>034-043>046-262100-
   NORTHWEST IOWA

CITY           SKY/WX    TMP DP  RH WIND       PRES   REMARKS
CARROLL *      CLOUDY    45  45 100 NW9       29.89F
CHEROKEE *     CLOUDY    45  41  86 NW5       29.91S
LE MARS *      CLOUDY    46  39  76 NW8       29.93F
ORANGE CITY *  CLOUDY    45  39  81 NW7       29.92S
SHELDON *      CLOUDY    45  45 100 NW7       29.90F
SIOUX CITY     CLOUDY    46  40  79 NW8       29.92F
SPENCER        CLOUDY    45  39  79 N8        29.91R
STORM LAKE *     N/A     43  39  87 NW8       29.90F
$$

IAZ055>058-069>071-079>083-090>094-262100-
   SOUTHWEST IOWA

CITY           SKY/WX    TMP DP  RH WIND       PRES   REMARKS
ATLANTIC *     CLOUDY    46  43  87 NW9       29.90S
AUDUBON *      CLOUDY    45  41  87 W6        29.90F
CLARINDA *     CLOUDY    48  45  87 W7        29.93F
COUNCIL BLFS * CLOUDY    46  45  93 NW7       29.90F
CRESTON *      CLOUDY    46  45  93 W9        29.90F
HARLAN  *      CLOUDY    46  46 100 NW9       29.93F
LAMONI         CLOUDY    47  43  86 W10       29.90R
RED OAK *      CLOUDY    50  43  76 VRB7      29.90F
SHENANDOAH *   CLOUDY    48  43  81 NW6       29.91F
$$

IAZ047>049-059>061-072>074-084-262100-
   CENTRAL IOWA

CITY           SKY/WX    TMP DP  RH WIND       PRES   REMARKS
AMES           CLOUDY    46  44  93 NW9       29.88R
ANKENY *       CLOUDY    46  43  87 NW9       29.90S
BOONE *        CLOUDY    45  45 100 NW7       29.87F
CHARITON *     CLOUDY    48  45  87 W10       29.88S
DES MOINES     CLOUDY    47  44  90 W10       29.89S
GRINNELL*      CLOUDY    46  44  92 W9        29.88R
MARSHALLTOWN   CLOUDY    47  45  93 NW8       29.85S
NEWTON *       CLOUDY    46  45  93 NW8       29.86S
PELLA *        CLOUDY    47  44  89 W10       29.88F
PERRY *        CLOUDY    45  43  93 NW8       29.89S
$$

IAZ004>006-015-016-023>025-035-036-262100-
   NORTH CENTRAL IOWA

CITY           SKY/WX    TMP DP  RH WIND       PRES   REMARKS
ALGONA *       MOSUNNY   45  43  93 N9        29.89S
CLARION *      CLOUDY    45  45 100 NW8       29.88R
ESTHERVILLE    CLOUDY    41  39  93 N9        29.89S
FORT DODGE *   CLOUDY    45  39  81 NW6       29.90S
MASON CITY     CLOUDY    45  41  86 N10       29.87F
FOREST CITY *  CLOUDY    43  43 100 N9        29.87R
WEBSTER CITY * CLOUDY    45  43  93 NW9       29.86S
IOWA FALLS *   CLOUDY    47  43  88 NW8       29.87S
$$

IAZ007>011-017>019-026>030-037>042-050>054-066-262100-
   NORTHEAST IOWA

CITY           SKY/WX    TMP DP  RH WIND       PRES   REMARKS
CEDAR RAPIDS   CLOUDY    46  46 100 NW8       29.83F
CHARLES CITY * CLOUDY    45  45 100 N7        29.85F
CLINTON *      LGT RAIN  55  54  96 S8        29.81F FOG
DECORAH *      CLOUDY    43  41  93 CALM      29.84S
DUBUQUE        FOG       48  48 100 N5        29.82R VSB 3/4
MONTICELLO *   CLOUDY    48  46  93 NW7       29.83S FOG
OELWEIN *      CLOUDY    45  45 100 N6        29.85S
WATERLOO       CLOUDY    46  43  89 NW7       29.85S
$$

IAZ064-065-067-068-078-262100-
   EAST CENTRAL IOWA

CITY           SKY/WX    TMP DP  RH WIND       PRES   REMARKS
DAVENPORT      CLOUDY    52  52 100 SW9       29.83R FOG
IOWA CITY      CLOUDY    50  46  86 NW12      29.85F
MUSCATINE *    CLOUDY    54  50  87 NW10      29.84F
QUAD CITIES    FOG       52  49  89 SW9       29.82S VSB 1
$$

IAZ062-063-075>077-085>089-095>099-262100-
   SOUTHEAST IOWA

CITY           SKY/WX    TMP DP  RH WIND       PRES   REMARKS
BURLINGTON     CLOUDY    49  47  93 W8        29.85S
FAIRFIELD *    CLOUDY    50  46  87 W13       29.86S
FORT MADISON * CLOUDY    52  50  93 W9        29.87S
KEOKUK *       CLOUDY    50  46  87 W10G17    29.86F
OSKALOOSA *    CLOUDY    46  46  99 NW9       29.87S
OTTUMWA        CLOUDY    48  46  93 W8        29.86S
WASHINGTON *   CLOUDY    52  50  93 W10       29.86S
$$

ABBREVIATIONS USED IN REMARKS
   TC - TEMPERATURES IN CELSIUS
  WCI - WIND CHILL INDEX
   HX - HEAT INDEX
  VSB - VISIBILITY
$$





USA.gov is the U.S. government's official web portal to all federal, state and local government web resources and services.